Location: East Arcadia
(34.1056°N, 118.0176°W)
Time: 01:25:25
(UTC+00:00)

Cosmos 2341 Rocket - Pass Details

Date: 01 April 2023
Orbit: 968 x 1004 km, 82.9° (Epoch: 08 June)

Event Time Altitude Azimuth Distance (km) Brightness Sun altitude
Exits shadow 12:31:39 - 210° (SSW) 2,903 6.1 -14.6°
Reaches altitude 10° 12:32:02 10° 211° (SSW) 2,768 5.9 -14.5°
Maximum altitude 12:38:00 42° 281° (W) 1,403 4.4 -13.4°
Drops below altitude 10° 12:43:59 10° 351° (N) 2,770 6.4 -12.2°
Sets 12:46:41 0° 358° (N) 3,718 7.2 -11.6°
